JCSAT-17

Last updated on Thu Jul 03 2025 00:02:48 GMT+0000 (Coordinated Universal Time)

1 45245U 20013A 25183.63661249 -.00000311 00000+0 00000+0 0 9996 2 45245 5.4343 353.4340 0003632 116.1439 176.5262 1.00272695 19722
UTC large
Height (km)
Speed (km/s)
/
Latitude / Longitude
Inclination (degrees)
Orbital Period (minutes)
Azimuth
Elevation
Range (km)
Doppler Factor

Next 0 passes for location: London (51.5072 / 0.1276)

Sorry there are no passes over London.